GFSNIL_prec_cthk_000.txt.gz
RH
30 31 31 29 26 29 31 32 30 29 31 25 22 20 20 24 25 29 32 33 33 32
33 35 35 37 37 39 31 31 33 34 35 31 26 24 22 22 21 25 28 30 31 32
34 36 38 39 44 46 41 33 34 37 37 35 27 25 21 20 18 21 24 28 31 34
57 41 44 42 47 52 51 49 39 35 35 36 30 27 21 21 25 27 30 34 36 36
36 59 43 46 54 56 57 51 47 39 37 35 33 30 26 26 28 31 35 39 40 39
55 52 53 53 58 56 60 49 50 48 42 40 34 31 29 33 39 41 42 39 37 37
60 59 76 60 65 55 61 55 54 54 48 47 40 35 33 42 47 47 47 46 42 41
52 72 81 76 78 71 61 61 56 55 53 53 53 46 39 46 55 56 54 50 46 44
61 67 89 93 84 79 67 64 56 61 55 58 62 55 46 51 62 65 62 54 51 45
62 67 78 91 73 89 75 68 55 58 58 62 68 61 58 62 67 70 66 53 45 42
68 68 90 77 72 84 73 65 57 61 64 67 73 67 73 79 75 73 61 49 43 41
58 64 76 86 73 80 74 62 64 68 73 79 79 81 79 84 79 64 52 43 43 45
55 63 71 76 80 76 75 69 74 74 78 82 92 92 88 87 79 54 39 41 44 46
53 62 69 74 82 77 73 75 76 79 78 82 88 86 88 83 63 42 41 42 41 45

GFSNIL_prec_cthk_003.txt.gz
RH
33 34 32 33 32 30 31 31 30 29 28 31 31 24 20 19 22 23 24 28 35 39
37 37 36 35 37 35 38 43 46 32 31 32 34 28 24 22 21 20 22 26 29 29
34 33 41 48 41 41 42 48 51 50 46 35 34 31 26 24 22 22 22 26 29 29
39 44 47 48 52 46 46 60 53 58 53 48 41 35 26 23 23 24 27 32 35 36
44 43 52 57 62 56 44 53 57 61 60 53 52 45 36 27 29 31 34 38 39 39
53 57 52 59 55 56 58 47 56 62 62 59 56 54 47 38 34 33 41 43 46 46
59 62 62 56 70 54 70 67 58 60 62 61 61 57 52 48 49 40 42 49 51 50
61 61 64 68 75 79 76 85 75 67 66 59 61 61 59 56 59 55 49 55 56 63
52 54 60 67 73 82 88 86 85 70 63 59 61 60 67 68 68 62 64 64 63 70
50 57 64 68 74 76 76 68 70 69 66 69 60 63 69 73 74 71 72 73 79 74
48 56 61 69 70 68 69 68 71 71 70 68 66 71 73 80 81 82 84 84 83 73
49 55 59 64 60 64 64 62 75 76 68 69 71 74 73 80 80 86 89 92 82 71
57 62 66 67 63 64 66 72 87 77 75 75 74 75 76 82 83 88 89 92 70 52
61 61 58 62 65 66 67 79 81 76 76 72 73 78 78 79 81 82 90 73 55 46

GFSNIL_prec_cthk_006.txt.gz
RH
34 35 38 44 46 45 47 47 48 41 43 43 40 34 29 26 28 32 29 26 33 37
33 36 46 49 50 49 48 48 46 47 51 57 57 44 34 30 31 29 28 32 32 35
32 35 40 46 50 49 54 52 54 51 56 55 61 58 49 43 34 27 26 31 36 36
38 43 40 47 48 53 57 51 53 53 56 67 57 61 58 51 46 38 29 29 36 39
44 46 45 48 48 52 50 52 54 56 57 50 64 63 65 60 53 49 44 38 35 45
48 49 55 52 44 54 53 55 54 69 75 67 63 62 65 67 59 54 51 51 51 46
59 58 60 58 56 52 53 50 57 65 67 72 56 55 63 73 64 57 59 59 62 59
58 63 65 65 56 59 57 57 56 64 64 65 60 54 68 68 65 64 67 64 67 70
54 55 57 55 57 57 59 62 69 63 63 64 59 57 62 64 67 71 72 73 80 80
48 49 49 51 59 62 70 72 67 64 63 63 63 64 59 63 70 75 77 77 79 84
45 45 43 45 47 51 61 64 64 62 61 64 73 64 66 72 72 73 73 74 76 78
38 43 44 46 50 59 65 67 65 66 66 69 75 65 74 78 79 73 72 76 80 82
40 43 46 52 56 65 71 65 64 68 70 72 70 74 75 76 78 77 77 78 82 83
42 47 53 53 56 62 64 66 69 72 76 77 74 73 79 72 72 74 75 78 80 82

GFSNIL_prec_cthk_009.txt.gz
RH
33 38 40 41 46 44 49 51 52 52 47 47 49 52 53 45 34 36 33 26 27 33
39 38 42 42 43 49 51 55 56 54 51 53 54 54 57 55 54 42 36 35 34 34
38 39 37 45 46 49 56 51 54 53 57 60 58 61 56 60 59 55 48 45 39 35
36 37 39 39 43 47 45 48 52 54 56 59 64 70 71 63 59 67 57 51 46 47
33 38 38 42 43 44 44 46 48 48 47 56 61 68 65 58 64 68 61 56 51 53
37 36 39 44 44 44 48 48 46 46 51 52 51 59 58 62 60 67 66 66 61 62
42 41 42 45 48 49 53 53 43 43 47 52 53 51 53 59 58 55 70 75 67 66
44 43 44 46 48 53 55 51 49 48 53 59 53 54 52 57 64 52 70 72 68 70
43 45 49 51 55 56 57 59 61 58 59 58 57 58 61 64 63 58 67 73 74 75
41 43 49 52 54 54 57 63 60 53 56 62 63 65 63 68 63 67 71 77 78 75
46 50 52 52 52 52 54 56 61 62 60 65 67 64 65 70 70 70 70 75 78 77
44 46 47 46 48 49 55 59 56 63 65 64 67 67 70 77 72 75 78 75 77 78
38 41 45 47 48 54 58 62 62 63 66 68 69 72 75 77 72 75 80 86 81 77
40 40 45 46 51 55 60 66 66 65 63 66 70 74 76 75 75 81 85 77 78 79

GFSNIL_prec_cthk_015.txt.gz
RH
25 27 30 26 33 33 33 41 47 45 47 47 50 47 52 52 55 52 54 54 53 54
30 29 34 27 31 34 40 45 45 44 48 51 50 45 45 49 52 51 50 47 48 53
23 32 33 30 31 37 44 45 44 44 48 49 54 53 48 50 54 56 56 51 46 48
22 28 30 27 30 36 43 43 46 46 49 48 51 53 48 47 52 54 54 55 54 54
23 25 26 27 30 33 38 43 44 48 48 52 51 51 50 45 47 51 52 54 56 58
23 23 22 27 31 32 33 36 41 43 47 50 52 55 59 54 47 50 52 55 54 57
22 21 24 26 27 31 32 36 41 44 48 51 53 57 62 59 51 49 50 54 55 60
22 23 26 28 28 30 33 37 42 44 48 52 58 60 60 64 61 57 51 54 56 62
23 26 29 30 30 32 35 38 42 47 53 58 62 65 68 70 64 61 54 54 60 67
24 25 30 34 36 39 41 44 48 52 60 64 67 71 70 66 65 60 53 59 66 69
29 26 32 36 38 43 46 51 55 61 69 67 66 64 64 67 63 57 60 67 68 73
32 27 32 37 44 48 51 56 60 65 66 59 60 63 65 67 65 63 63 65 67 75
36 32 32 41 48 50 55 67 71 60 58 61 62 63 66 62 62 62 65 67 65 72
41 37 40 46 51 59 73 69 60 59 56 58 61 62 59 59 63 60 60 63 69 73

GFSNIL_prec_cthk_021.txt.gz
RH
26 26 25 26 28 27 29 28 35 39 46 47 48 47 47 44 47 50 49 48 47 48
28 27 28 26 25 29 29 31 35 41 44 47 47 45 46 44 45 47 48 47 46 48
30 29 26 30 27 31 29 32 34 40 44 49 49 45 44 47 44 46 48 49 48 46
31 27 27 29 28 28 29 32 37 40 43 46 49 46 48 50 53 48 46 48 47 47
36 28 26 26 29 25 27 31 36 41 42 45 48 49 50 50 54 57 54 47 49 48
36 31 24 23 28 24 26 32 35 39 41 43 47 49 49 51 55 59 63 63 58 59
33 33 25 21 27 25 26 31 33 38 41 44 50 51 52 55 58 61 66 70 71 63
34 35 30 22 24 25 27 30 34 37 40 43 47 49 51 53 55 61 67 71 73 69
35 35 32 25 21 25 27 28 30 33 37 38 41 43 45 51 55 59 67 69 73 71
35 35 31 31 23 22 25 28 29 31 34 34 37 39 44 54 62 64 69 72 70 69
36 33 32 31 28 24 25 26 27 30 33 36 37 41 50 61 67 72 68 70 72 67
35 35 34 31 31 29 29 29 28 30 36 38 42 52 62 66 71 71 68 73 70 65
34 37 37 36 35 35 31 32 33 36 39 43 55 64 65 66 73 69 70 70 65 61
38 35 36 41 42 37 35 35 38 41 44 54 62 59 50 52 65 69 73 63 61 57

GFSNIL_prec_cthk_024.txt.gz
RH
27 27 28 32 33 31 27 28 32 37 42 46 51 50 44 43 45 46 47 46 48 48
29 29 28 28 30 29 27 26 31 39 43 44 49 50 48 46 48 46 47 47 46 46
37 35 31 31 31 30 27 27 29 38 41 43 47 50 50 47 47 47 46 48 47 46
35 36 35 32 32 29 30 28 30 36 40 41 46 49 49 47 48 48 44 46 49 51
36 37 36 31 29 27 31 29 31 35 40 41 43 47 48 49 51 54 56 56 56 55
36 36 37 33 28 25 29 29 29 33 38 38 41 46 47 49 48 53 55 61 67 66
34 32 34 34 27 24 27 28 30 33 37 38 43 46 46 46 49 55 60 64 70 71
33 35 35 35 31 21 24 25 26 32 36 38 39 42 46 47 49 56 58 62 68 72
36 38 38 35 35 27 22 27 27 32 34 36 37 42 47 48 47 52 58 64 68 71
38 37 37 38 36 32 22 24 25 30 33 35 40 44 46 47 44 47 54 63 67 73
38 38 39 41 38 33 31 23 23 27 31 35 38 41 43 42 41 45 54 61 68 70
36 38 40 42 37 33 35 31 24 25 29 32 34 35 38 40 41 46 52 63 66 67
39 42 39 40 40 38 38 37 33 29 29 31 31 32 34 40 43 47 52 56 64 62
44 45 45 48 49 49 47 43 41 34 31 36 37 33 33 39 48 52 51 56 60 62

GFSNIL_prec_cthk_027.txt.gz
RH
23 25 26 29 34 34 32 27 27 29 38 43 48 51 49 45 44 43 43 43 42 44
23 24 24 25 26 30 32 29 25 31 36 40 45 47 49 47 44 45 42 43 43 45
26 27 27 27 27 26 28 30 28 30 37 40 44 46 48 49 49 46 46 44 46 48
30 33 36 35 31 30 30 32 32 30 36 40 43 45 48 50 48 47 44 44 46 50
34 35 34 34 35 35 27 30 34 30 33 38 40 42 45 47 47 46 44 46 47 51
39 35 35 36 36 35 29 25 29 32 31 35 37 39 41 45 47 45 47 49 52 56
36 34 34 35 36 36 31 25 25 28 29 32 36 38 39 42 46 45 44 47 52 57
35 35 35 34 34 36 35 26 22 26 27 29 34 36 37 40 44 44 43 45 51 55
35 35 34 35 37 38 38 35 23 24 25 25 28 32 35 38 40 41 41 45 49 54
37 37 36 36 39 40 39 39 29 23 24 24 29 30 34 36 37 38 39 43 46 49
41 39 41 42 40 39 40 39 35 27 25 22 25 30 32 36 38 36 38 42 45 48
40 41 40 42 42 42 44 43 36 32 29 25 22 26 33 38 38 37 38 41 43 48
37 42 43 43 46 49 44 43 43 36 33 29 28 28 31 37 39 39 40 42 43 50
39 40 44 49 55 57 55 59 48 45 39 35 30 30 32 37 41 38 37 40 46 56

GFSNIL_prec_cthk_030.txt.gz
RH
21 26 28 29 35 34 39 38 36 30 24 33 37 41 43 45 43 41 38 38 39 46
20 22 24 25 28 30 34 37 33 29 23 30 36 38 41 44 42 41 39 40 41 44
19 20 21 23 24 25 28 30 34 28 27 31 36 37 40 43 42 41 41 42 43 43
22 23 25 27 26 26 27 28 32 29 25 30 37 36 38 42 44 41 41 41 43 44
26 23 24 25 27 29 28 27 27 29 27 28 36 38 36 41 44 41 41 41 41 42
31 30 29 29 32 33 32 28 26 26 26 25 30 36 34 37 40 40 39 40 41 43
30 31 32 34 34 34 35 34 28 25 23 23 25 33 33 33 35 38 38 39 42 44
32 33 34 35 35 35 35 39 39 32 24 22 25 27 29 29 31 35 37 38 40 42
36 37 35 36 35 37 38 40 42 40 34 24 21 23 26 28 29 32 33 35 38 43
39 37 38 40 41 37 38 41 40 41 40 31 22 20 19 24 27 28 32 35 40 42
38 42 44 43 42 42 40 40 42 42 42 38 29 24 21 23 30 30 32 34 37 40
40 44 47 45 43 46 53 54 53 54 56 47 36 32 26 24 28 29 31 33 36 39
41 45 43 43 49 50 51 54 55 56 55 55 47 40 39 31 30 34 35 36 38 39
35 36 39 42 45 47 49 53 52 54 53 52 53 46 39 37 33 31 35 40 42 43

GFSNIL_prec_cthk_033.txt.gz
RH
19 23 25 27 31 34 37 36 39 34 33 29 34 38 40 44 41 41 36 37 38 50
17 17 22 24 25 30 30 35 38 36 29 28 28 38 38 39 42 41 39 40 38 42
15 15 18 22 24 24 28 27 37 31 30 26 25 33 38 38 41 40 42 42 43 41
18 18 20 23 24 24 24 25 25 28 28 25 23 28 36 36 42 39 39 41 42 42
21 20 20 23 26 26 28 27 27 28 28 29 25 27 34 37 36 40 41 41 39 39
28 22 20 20 20 21 23 26 26 26 27 26 25 24 28 34 31 36 39 38 38 37
37 28 25 25 24 24 25 26 26 27 26 24 21 23 21 26 30 30 34 36 36 37
41 38 35 35 31 30 28 28 34 37 37 33 27 22 20 20 25 26 28 33 35 38
46 43 39 39 37 34 31 32 35 36 38 39 37 31 23 21 22 26 29 31 35 35
45 44 43 41 42 40 37 35 34 36 39 41 43 39 32 23 24 23 25 29 31 33
40 42 45 44 43 43 46 45 42 40 41 41 41 43 38 32 27 25 24 25 27 31
35 41 44 39 41 44 47 48 45 46 47 46 43 45 45 39 35 30 26 25 31 33
35 36 42 42 41 45 46 45 50 50 47 44 42 44 46 47 40 36 36 30 31 33
33 32 39 42 39 44 46 48 48 49 48 45 41 40 45 49 50 42 39 38 38 32

GFSNIL_prec_cthk_036.txt.gz
RH
21 22 21 23 25 27 31 32 29 30 31 28 28 31 40 34 40 37 33 32 40 45
18 18 16 19 21 24 26 31 34 32 33 29 28 25 36 36 35 39 36 32 35 42
12 12 13 15 17 21 23 23 33 30 30 28 26 25 29 36 34 40 38 36 34 37
11 12 15 16 18 20 24 26 25 33 26 27 28 25 24 32 36 35 38 37 36 36
16 17 17 17 18 21 24 27 27 30 32 27 26 24 23 23 31 36 35 35 35 36
21 20 19 18 18 18 20 23 26 28 30 26 24 24 23 20 22 30 34 36 37 37
37 32 24 21 22 21 21 21 22 23 26 29 26 23 23 25 23 25 31 35 35 36
42 41 38 31 28 26 23 23 21 24 27 30 32 29 23 21 22 21 21 27 33 35
44 45 42 42 37 36 32 28 28 28 28 31 35 34 30 26 21 21 21 21 23 28
42 43 44 44 43 40 39 38 33 31 31 31 33 37 37 35 31 25 22 20 20 22
40 42 43 41 43 44 42 41 41 42 39 34 32 34 39 42 41 39 33 30 27 26
34 38 38 36 41 44 45 44 43 43 44 43 41 41 41 44 46 45 43 42 39 35
34 34 36 37 38 42 46 45 46 45 44 44 43 45 47 50 55 51 50 54 50 46
32 32 33 39 39 40 44 47 42 41 45 44 43 44 46 47 50 47 49 51 50 52

GFSNIL_prec_cthk_042.txt.gz
RH
21 22 22 22 23 24 25 28 30 30 30 31 31 30 35 38 39 36 34 40 42 43
21 22 21 19 21 22 25 28 30 30 29 33 30 30 31 36 37 37 33 34 37 41
23 20 19 18 19 19 19 22 26 28 28 34 35 31 30 32 36 38 36 34 33 36
23 20 19 18 16 16 17 17 19 23 25 30 33 36 32 28 32 35 35 36 34 32
20 19 18 16 16 17 18 18 19 20 24 28 30 30 30 29 25 27 33 33 34 33
17 17 18 18 18 18 18 19 21 22 23 23 24 26 27 28 27 23 20 27 31 30
15 18 18 18 18 18 17 18 19 20 21 21 23 24 24 25 25 24 23 19 21 26
17 17 18 19 19 19 18 17 17 17 18 20 23 25 27 26 24 23 23 23 22 21
24 26 28 23 20 22 20 19 18 18 20 22 26 29 31 33 33 32 31 29 27 26
33 35 35 35 32 29 25 24 22 22 24 25 27 28 30 34 36 39 39 39 39 39
44 44 42 41 40 37 36 34 30 27 27 28 29 30 32 34 37 39 40 43 44 47
42 40 41 41 42 44 44 41 39 36 34 34 36 41 44 44 43 43 45 49 49 50
44 40 37 38 40 40 43 44 46 43 40 39 40 41 43 47 49 46 48 50 48 49
43 42 41 38 38 38 39 40 41 41 44 43 43 42 44 45 46 46 50 51 51 53

GFSNIL_prec_cthk_045.txt.gz
RH
32 30 26 23 22 23 24 26 26 28 31 35 33 36 39 41 42 39 41 42 42 42
31 29 26 22 23 22 24 26 28 30 29 32 35 33 36 38 40 40 39 39 42 42
27 26 24 24 23 22 23 26 28 30 29 31 33 32 31 35 36 37 36 35 35 38
25 25 26 24 22 20 21 23 24 26 29 29 33 33 29 29 35 36 36 37 34 31
26 25 25 22 19 19 18 20 21 22 26 27 29 31 31 29 29 35 37 36 36 34
25 24 21 19 17 18 19 20 21 21 20 21 24 27 28 30 31 29 30 34 34 33
20 19 18 17 18 18 18 19 19 19 19 20 22 24 26 26 26 26 25 24 26 30
17 17 17 19 20 20 19 18 18 19 18 18 21 21 22 23 24 24 24 24 24 23
16 16 18 19 21 20 19 18 17 16 16 17 17 20 24 27 28 27 26 24 25 26
20 21 21 22 21 22 20 18 17 16 17 19 21 24 26 29 29 32 35 37 38 36
31 34 37 35 31 31 30 28 23 20 21 23 25 26 28 29 31 36 38 39 41 44
44 46 44 44 42 39 37 37 35 33 31 31 31 31 32 34 35 34 37 40 42 46
50 50 48 48 49 49 47 45 43 40 38 37 38 40 42 45 44 44 44 47 48 51
51 51 48 48 47 45 43 45 47 47 48 46 43 44 46 48 46 45 43 41 44 47

GFSNIL_prec_cthk_048.txt.gz
RH
32 31 31 31 27 23 23 24 26 27 30 31 36 37 39 39 41 39 38 40 40 40
31 30 29 28 28 25 22 23 26 28 29 31 34 37 36 38 39 42 42 40 39 38
29 29 29 30 30 27 24 23 25 28 30 28 31 33 37 36 37 38 41 41 39 37
28 28 29 28 29 29 27 25 25 29 30 28 28 29 32 35 35 37 35 38 39 37
27 27 28 27 28 29 26 24 24 25 27 27 25 30 30 29 34 36 36 36 35 34
27 25 26 27 27 27 25 22 20 20 20 21 24 26 29 29 30 32 36 35 35 34
26 26 26 26 26 24 24 24 21 19 18 18 19 22 25 28 30 29 26 28 31 33
26 28 26 25 23 21 23 22 20 18 17 18 19 20 20 21 22 23 24 24 23 22
27 24 22 21 20 21 21 21 21 19 18 17 17 16 16 17 19 20 20 20 20 22
23 20 19 18 18 20 21 21 20 19 18 16 15 15 17 21 23 24 25 26 27 29
19 17 18 19 20 21 22 21 20 19 17 17 16 19 22 24 26 26 29 32 34 36
22 23 24 25 26 25 26 25 24 22 21 21 22 25 26 27 28 28 31 33 34 36
36 38 38 42 43 41 41 40 39 39 35 33 34 37 37 37 36 35 36 37 38 42
41 47 51 52 52 51 51 52 49 46 44 44 42 42 45 46 45 43 43 43 44 45